Hourly Data Report for October 01, 2016

All times are specified in Local Standard Time (LST). Add 1 hour to adjust for Daylight Saving Time where and when it is observed.

CHARLOTTETOWN A
PRINCE EDWARD ISLAND

46°17'21.000" N
63°07'09.000" W
48.50 m
8300301
71706
YYG

Download Data

Hourly Data (October 2016)
Hourly Data Report for October 1, 2016
Temp Definition
°C
Dew Point Temp Definition
°C
Rel Hum Definition
%
Wind Dir Definition
10's deg

Wind Spd Definition
km/h
Visibility Definition
km
Stn Press Definition
kPa
Hmdx Definition


Wind Chill Definition


Weather Definition


TIME
00:00 Legend Double Dagger 9.9 6.1 77 26 10 24.1 102.44     LegendNANA
01:00 Legend Double Dagger 8.9 5.5 79 28 5 24.1 102.42     LegendNANA
02:00 Legend Double Dagger 8.2 5.3 82 27 5 24.1 102.42     Clear
03:00 Legend Double Dagger 9.2 5.4 77 25 8 24.1 102.37     LegendNANA
04:00 Legend Double Dagger 8.9 6.0 82 24 12 24.1 102.37     LegendNANA
05:00 Legend Double Dagger 9.1 7.4 89 26 8 24.1 102.36     Clear
06:00 Legend Double Dagger 9.1 7.2 88 28 5 24.1 102.35     LegendNANA
07:00 Legend Double Dagger 9.8 7.6 86 27 5 24.1 102.36     LegendNANA
08:00 Legend Double Dagger 12.0 8.7 80 28 8 24.1 102.35     Mostly Cloudy
09:00 Legend Double Dagger 14.6 9.0 69 26 7 24.1 102.38     LegendNANA
10:00 Legend Double Dagger 16.1 9.6 65 25 8 24.1 102.37     LegendNANA
11:00 Legend Double Dagger 17.1 5.8 47 28 8 24.1 102.32     Mostly Cloudy
12:00 Legend Double Dagger 18.0 7.5 50 26 6 24.1 102.26     LegendNANA
13:00 Legend Double Dagger 17.9 8.0 52 24 5 24.1 102.19     LegendNANA
14:00 Legend Double Dagger 18.3 6.9 47 27 7 24.1 102.14     Mostly Cloudy
15:00 Legend Double Dagger 18.6 6.9 46 26 6 24.1 102.09     LegendNANA
16:00 Legend Double Dagger 18.0 9.2 56 26 7 24.1 102.05     LegendNANA
17:00 Legend Double Dagger 15.8 8.8 63 23 11 24.1 102.03     Mostly Cloudy
18:00 Legend Double Dagger 13.9 8.6 70 26 9 24.1 102.04     LegendNANA
19:00 Legend Double Dagger 11.0 8.8 86 28 3 24.1 102.02     LegendNANA
20:00 Legend Double Dagger 9.1 8.0 93 30 3 24.1 101.98     Mostly Cloudy
21:00 Legend Double Dagger 8.1 7.0 93 36 2 24.1 101.97     LegendNANA
22:00 Legend Double Dagger 7.5 6.6 94 23 4 24.1 101.95     LegendNANA
23:00 Legend Double Dagger 8.1 7.4 95 24 6 24.1 101.90     Mainly Clear

Notes on Data Quality.

Legend

  • E = Estimated
  • M = Missing
  • NA = Not Available
  • ‡ = Partner data that is not subject to review by the National Climate Archives
Date modified: